Flag for Brazil Weather past 2 weeks in São Paulo, São Paulo, Brazil

Now
79 °F

Sunny.


Feels Like: 81 °F
Forecast: 62 / 86 °F
Wind: 6 mph from Northwest

Location: Sao Paulo Airport

Current Time: Feb 27, 2015 at 10:46:44 AM

Latest Report: Feb 27, 2015 at 10:00 AM


Visibility: 10 mi

Pressure: 30.01 "Hg

Humidity: 61%

Dew point: 64 °F

Location of São PauloLocation

Historic Weather in São Paulo — Graph

°F

São Paulo temperature yesterday

Maximum temperature yesterday: 84 °F (at 2:00 PM)
Minimum temperature yesterday: 68 °F (at 12:00 AM)
Average temperature yesterday: 74 °F

Past Weeks' High & Low Weather Summary

 TemperatureHumidityPressure
High90 °F (Feb 12, 3:00 PM)100% (Feb 16, 5:00 PM)30.21 "Hg (Feb 16, 5:00 PM)
Low37 °F (Feb 24, 4:00 PM)35% (Feb 22, 1:00 PM)29.92 "Hg (Feb 17, 5:00 PM)
Average74 °F73%30.07 "Hg
* Reported Feb 12 10:00 AM — Feb 27 9:00 AM, São Paulo, Weather by CustomWeather, © 2015

Note: Actual official high and low records may vary slightly from our data, if they occured in-between our weather recording intervals... More about our weather records

Advertising

São Paulo weather history for previous 24 hours

 ConditionsComfort  
Time TempWeatherWind HumidityBarometerVisibility
9:00 AM
Fri, Feb 27
75 °FSunny.5 mph69%30.01 "Hg10 mi
8:00 AM73 °FSunny.6 mph74%30.01 "Hg10 mi
7:00 AM72 °FSunny.2 mph78%29.98 "Hg10 mi
6:00 AM70 °FSunny.1 mph83%29.98 "Hg10 mi
5:00 AM70 °FSunny.2 mph83%29.98 "Hg10 mi
4:00 AM70 °FClear.5 mph83%29.98 "Hg10 mi
3:00 AM72 °FClear.1 mph78%29.98 "Hg10 mi
2:00 AM72 °FClear.No wind73%29.98 "Hg10 mi
1:00 AM73 °FClear.2 mph69%29.98 "Hg10 mi
12:00 AM73 °FClear.2 mph74%30.01 "Hg10 mi
11:00 PM
Thu, Feb 26
73 °FClear.2 mph74%30.01 "Hg10 mi
10:00 PM75 °FClear.3 mph69%30.01 "Hg10 mi
9:00 PM75 °FPassing clouds.3 mph74%30.01 "HgN/A
8:00 PM75 °FPassing clouds.5 mph74%29.98 "HgN/A
7:00 PM75 °FPassing clouds.5 mph69%29.98 "HgN/A
6:00 PM75 °FPassing clouds.9 mph69%29.98 "HgN/A
5:00 PM79 °FScattered clouds.8 mph61%29.95 "HgN/A
4:00 PM81 °FThundershowers. Scattered clouds.16 mph58%29.95 "HgN/A
3:00 PM84 °FThundershowers. Scattered clouds.8 mph43%29.98 "HgN/A
2:00 PM84 °FScattered clouds.7 mph45%30.01 "HgN/A
1:00 PM82 °FScattered clouds.9 mph51%30.04 "HgN/A
12:00 PM82 °FScattered clouds.9 mph55%30.04 "HgN/A
11:00 AM79 °FPassing clouds.8 mph61%30.07 "HgN/A
10:00 AM75 °FPassing clouds.8 mph69%30.09 "HgN/A
Weather by CustomWeather, © 2015

See weather overviewHow to use our weather pages